LiveATC.Net - Listen to live air traffic control over the Internet! Contact LiveATC.net for advertising information

Find LiveATC Audio Streams


Airport/ARTCC Code

Frequency
(e.g., 124.400, 128.75)
Site-wide search

Browse LiveATC Feeds
LiveATC Coverage Map
Top 50 LiveATC Feeds
Bad Weather Areas

LiveATC FAQ
Offer a LiveATC Feed
Contact LiveATC.net
Press Inquiries

LiveATC on iPhone
LiveATC on Android

LiveATC Mobile
(Mobile browser)

ATC Audio Archives
Interesting Recordings

LiveATC Forums

Home Page
About LiveATC.net
Make a Donation
LiveATC Bookstore

Terms of Use
Privacy Policy

ATC/Radar Sites
U.S. ARTCC Freqs
Canadian Air Freqs

AIRMETs/SIGMETs

FAA Airport Status
Nat'l Airspace Status
Arrival Demand Charts


Server Software By:
Icecast.org
Liquidsoap

U.S. Feeds: Class B Airports | Class C Airports | Class D/Other Airports | ARTCC (Centers)
International Feeds: Canada | Europe | Oceania | Asia | South America | North & Central America | Africa
Misc Feeds: HF Feeds
All Feeds: All Feeds
Search by ICAO/IATA airport code:   (e.g., kbos, kjfk, lax, eham, etc.)


Currently Available Live Feeds: 989
Status Updated: Tue Sep 02 2014 06:46:02 UTC


NOTICE

Unauthorized use prohibited. See LiveATC.net Terms of Service

ATC Facility
ATC Radio Frequencies

North and Central America Airport Feeds

 

MDSD Twr/App/Control
Santo Domingo, Dominican Republic

Feed Status: DOWN
Offline since: 2014-01-28 03:44:04 UTC
MDSD 020600Z 05005KT 9999 FEW017CB FEW018 SCT300 24/23 Q1015 CB/S

Americas Approach: 119.300
Americas Tower: 118.100
Higuero Tower: 118.900
Santo Domingo Control (North): 124.300
Santo Domingo Control (South): 127.800
Santo Domingo Information: 126.900

MMAN Tower (Archives)
Monterrey, Mexico

Feed Status: UP

Click on your favorite media player to listen:
Listen with WinAmp to MMAN Tower  Listen with iTunes to MMAN Tower  Click here to listen if using Real Player  Click here to listen if using Windows Media Player

Or simply listen in your browser:

Listen right in your browser(in browser, requires Flash)

MMAN 020440Z 11010KT 10SM SKC 28/20 A2995 RMK ISOL CU

MMAN Flight Activity (Flightaware)

Listeners: 2 out of 3182 total

Monterrey Tower: 118.600

MMCL Twr/App/Center
Culiacan, Mexico

Feed Status: DOWN
Offline since: 2014-07-01 06:50:03 UTC
MMCL 020543Z 00000KT 10SM SCT030 BKN080 OVC220 27/23 A2982 RMK SLP086 52007 967 8/463 TS AND RA INTMT E12

Culiacan Approach: 119.750
Culiacan Tower: 118.500
Mazatlan Center: 128.000
Mazatlan Center: 124.400
Mazatlan Center: 128.300
Mazatlan Center: 124.200

MMGL Twr/App (Archives)
Guadalajara, Mexico

Feed Status: UP

Click on your favorite media player to listen:
Listen with WinAmp to MMGL Twr/App  Listen with iTunes to MMGL Twr/App  Click here to listen if using Real Player  Click here to listen if using Windows Media Player

Or simply listen in your browser:

Listen right in your browser(in browser, requires Flash)

MMGL 020555Z 00000KT 7SM SCT020 BKN080 17/15 A3014 RMK SLP104 52018 907 8/470 OCNL DROPS

MMGL Flight Activity (Flightaware)

Listeners: 5 out of 3182 total

Guadalajara Approach: 120.800
Guadalajara Tower: 118.100

MMLP Twr/App/Center
La Paz, Mexico

Feed Status: DOWN
Offline since: 2014-04-30 02:30:03 UTC
MMLP 020448Z 19005KT 10SM SCT080 BKN200 28/24 A2983 RMK 8/038

La Paz Approach: 120.600
La Paz Tower: 118.100
Los Cabos Approach: 120.900
Mazatlan Center: 128.000
Mazatlan Center: 124.400
Mazatlan Center: 128.300
Mazatlan Center: 124.200
Mazatlan Center: 126.300

MMMD Tower/Approach (Archives)
Merida, Mexico

Feed Status: UP

Click on your favorite media player to listen:
Listen with WinAmp to MMMD Tower/Approach   Listen with iTunes to MMMD Tower/Approach   Click here to listen if using Real Player  Click here to listen if using Windows Media Player

Or simply listen in your browser:

Listen right in your browser(in browser, requires Flash)

MMMD 020545Z 12004KT 6SM OVC080 26/26 A2997 RMK SLP146 52008 904 8/07/

MMMD Flight Activity (Flightaware)

Listeners: 2 out of 3182 total

Merida Approach: 121.200
Merida Tower: 118.300

MMMX Approach (Archives)
Mexico City, Mexico

Feed Status: UP

Click on your favorite media player to listen:
Listen with WinAmp to MMMX Approach  Listen with iTunes to MMMX Approach  Click here to listen if using Real Player  Click here to listen if using Windows Media Player

Or simply listen in your browser:

Listen right in your browser(in browser, requires Flash)

MMMX 020546Z 17005KT 10SM BKN020 OVC080 15/12 A3033 NOSIG RMK SLP100 52010 904 8/57/ HZY

MMMX Flight Activity (Flightaware)

Listeners: 7 out of 3182 total

Mexico City Approach: 121.200

MMMY Tower/Approach (Archives)
Monterrey, Mexico

Feed Status: UP

Click on your favorite media player to listen:
Listen with WinAmp to MMMY Tower/Approach  Listen with iTunes to MMMY Tower/Approach  Click here to listen if using Real Player  Click here to listen if using Windows Media Player

Or simply listen in your browser:

Listen right in your browser(in browser, requires Flash)

MMMY 020540Z 10010KT 12SM SCT020 BKN070 27/21 A2991 RMK SLP121 53024 956 8/570

MMMY Flight Activity (Flightaware)

Listeners: 2 out of 3182 total

Monterrey Approach/Departure: 119.750
Monterrey Tower: 118.100

MMPB Tower (Archives)
Puebla, Mexico

Feed Status: UP

Click on your favorite media player to listen:
Listen with WinAmp to MMPB Tower  Listen with iTunes to MMPB Tower  Click here to listen if using Real Player  Click here to listen if using Windows Media Player

Or simply listen in your browser:

Listen right in your browser(in browser, requires Flash)

MMPB 020440Z 18006KT 3SM BR BKN008 BKN015 OVC070 20/20 A3036 RMK 8/57/ HZY

MMPB Flight Activity (Flightaware)

Listeners: 2 out of 3182 total

Puebla Tower: 118.200

MMPB Tower/Approach
Puebla, Mexico

Feed Status: DOWN
Offline since: 2014-08-16 02:28:03 UTC
MMPB 020440Z 18006KT 3SM BR BKN008 BKN015 OVC070 20/20 A3036 RMK 8/57/ HZY

AeroMexico Ops: 131.000
Mexico Approach: 121.200
Mexico Approach (East): 120.500
Mexico Center: 128.000
Puebla Tower/Approach: 118.200
Toluca Approach: 129.600

MMSP Twr/App/Center
San Luis Potosi, Mexico

Feed Status: DOWN
Offline since: 2013-01-03 03:26:05 UTC
MMSP 020542Z 18006KT 10SM SKC 18/14 A3022 RMK SLP078 52020 958 CI

Mexico Center (Sector 6): 126.000
Mexico Center (Sector 7): 123.900
Potosi Tower/App: 118.900

MMTC Torreon, Mexico (Archives)
Torreon, Mexico

Feed Status: UP

Click on your favorite media player to listen:
Listen with WinAmp to MMTC Torreon, Mexico  Listen with iTunes to MMTC Torreon, Mexico  Click here to listen if using Real Player  Click here to listen if using Windows Media Player

Or simply listen in your browser:

Listen right in your browser(in browser, requires Flash)

MMTC 020344Z 04010KT 10SM SCT200 30/12 A2995 RMK 8/002

MMTC Flight Activity (Flightaware)

Listeners: 2 out of 3182 total

Mazatlan Center: 124.200
Mazatlan Center: 124.400
Mazatlan Center: 128.000
Mexico Center: 123.900
Monterrey Center: 125.600
Monterrey Center: 125.425
Monterrey Center: 127.400
Torreon Approach: 119.500
Torreon Tower: 118.500

MMUN Twr/App/Center (Archives)
Cancun, Mexico

Feed Status: UP

Click on your favorite media player to listen:
Listen with WinAmp to MMUN Twr/App/Center  Listen with iTunes to MMUN Twr/App/Center  Click here to listen if using Real Player  Click here to listen if using Windows Media Player

Or simply listen in your browser:

Listen right in your browser(in browser, requires Flash)

MMMD 020545Z 12004KT 6SM OVC080 26/26 A2997 RMK SLP146 52008 904 8/07/

MMMD Flight Activity (Flightaware)

Listeners: 2 out of 3182 total

Cancun Approach: 123.400
Cancun Departure: 119.800
Cancun Tower (North): 118.100
Cancun Tower (South): 118.600
Merida Center: 125.200
Merida Center: 128.200

TBPB Gnd/Twr/App/Center
Bridgetown, Barbados

Feed Status: DOWN
Offline since: 2014-08-21 00:26:03 UTC
TBPB 020600Z 06016KT 9999 SCT018 BKN280 27/24 Q1013 NOSIG

Adams Approach: 129.350
Adams Arrival/Departure: 121.200
Adams Arrival/Departure: 120.700
Adams Arrival/Departure: 128.850
Adams Ground: 121.900
Adams Tower: 118.700
Emergency/Guard: 121.500
Piarco Center: 126.500
Piarco Center: 125.400
Piarco Center: 123.700
Piarco Center: 133.100

NOTE: Part-time feed up during peak hours only (1700-2200Z)
See: FlightTracker2.com for more info

TNCM Tower/Misc
Philipsburg, Saint Martin

Feed Status: DOWN
Offline since: 2014-09-01 21:58:03 UTC
TNCM 011800Z 09010KT 070V130 9999 SCT022CB 31/24 Q1015 A2999 NOSIG RMK CB TOP ESE CB DIST. NW

Juliana Approach (only when busy): 128.950
Juliana Tower (TNCM): 118.700
Lloyd Tower (TQPF/Anguilla): 118.500

NOTE: Feed up from 1100-2200Z

Bermuda Tower/Ground (Archives)
Hamilton, Bermuda

Feed Status: UP

Click on your favorite media player to listen:
Listen with WinAmp to Bermuda Tower/Ground  Listen with iTunes to Bermuda Tower/Ground  Click here to listen if using Real Player  Click here to listen if using Windows Media Player

Or simply listen in your browser:

Listen right in your browser(in browser, requires Flash)

TXKF 020555Z 00000KT 9999 FEW017 25/24 Q1021 RMK WND EST 

TXKF Flight Activity (Flightaware)

Listeners: 2 out of 3182 total

Bermuda CTAF: 122.800
Bermuda Ground/Clearance: 124.500
Bermuda Tower: 118.100

ZNY Bermuda Sector (Archives)
Hamilton, Bermuda

Feed Status: UP

Click on your favorite media player to listen:
Listen with WinAmp to ZNY Bermuda Sector  Listen with iTunes to ZNY Bermuda Sector  Click here to listen if using Real Player  Click here to listen if using Windows Media Player

Or simply listen in your browser:

Listen right in your browser(in browser, requires Flash)

TXKF 020555Z 00000KT 9999 FEW017 25/24 Q1021 RMK WND EST 

TXKF Flight Activity (Flightaware)

Listeners: 2 out of 3182 total

New York Approach (Bermuda Sector) : 119.100
New York Center (Bermuda Sector): 128.500

MGGT Gnd/Twr
Guatemala City, Guatemala

Feed Status: DOWN
Offline since: 2014-08-29 14:36:03 UTC
MGGT 020600Z 19004KT 8000 FEW016 SCT080 19/17 Q1026 A3030 BR

Guatemala City Ground: 121.900
Guatemala City Tower: 118.100

MGGT Ground
Guatemala City, Guatemala

Feed Status: DOWN
Offline since: 2014-08-29 14:36:03 UTC
MGGT 020600Z 19004KT 8000 FEW016 SCT080 19/17 Q1026 A3030 BR

Guatemala City Ground: 121.900

MGGT Tower
Guatemala City, Guatemala

Feed Status: DOWN
Offline since: 2014-08-29 14:36:03 UTC
MGGT 020600Z 19004KT 8000 FEW016 SCT080 19/17 Q1026 A3030 BR

Guatemala City Tower: 118.100

MHTG Gnd/Twr/App/Ctr/Ops (Archives)
Tegucigalpa, Honduras

Feed Status: UP

Click on your favorite media player to listen:
Listen with WinAmp to MHTG Gnd/Twr/App/Ctr/Ops  Listen with iTunes to MHTG Gnd/Twr/App/Ctr/Ops  Click here to listen if using Real Player  Click here to listen if using Windows Media Player

Or simply listen in your browser:

Listen right in your browser(in browser, requires Flash)

MHTG 020600Z 00000KT 9999 FEW028 19/18 Q1020 A3012 NOSIG

MHTG Flight Activity (Flightaware)

Listeners: 2 out of 3182 total

American Airlines Ops: 130.700
ARINC ACARS: 131.550
Cenamer Center: 123.900
Cenamer Center: 124.300
Cenamer Center: 124.100
CMP Ops: 129.925
Continental Airlines Ops: 129.925
FAH Ground: 122.900
Taca Ops: 131.300
Taca Ops Sal: 130.300
Tecnologias Unidas: 133.000
Tegucigalpa RDO: 126.700
Toncontin Approach: 119.100
Toncontin Ground: 121.900
Toncontin Tower: 118.700

MPTO Twr/App/Control (Archives)
Panama City, Panama

Feed Status: UP

Click on your favorite media player to listen:
Listen with WinAmp to MPTO Twr/App/Control  Listen with iTunes to MPTO Twr/App/Control  Click here to listen if using Real Player  Click here to listen if using Windows Media Player

Or simply listen in your browser:

Listen right in your browser(in browser, requires Flash)

MPTO 020600Z 00000KT 9999 FEW018 27/25 Q1008 NOSIG

MPTO Flight Activity (Flightaware)

Listeners: 2 out of 3182 total

Panama Approach: 121.200
Panama Control: 123.300
Panama Control: 133.300
Panama Departure: 119.700
Panama Tower: 118.100

MROC Del/Gnd/Twr/App/Center/Misc
San Jose, Costa Rica

Feed Status: DOWN
Offline since: 2014-09-02 03:36:03 UTC
MROC 020600Z 02004KT 9999 BCFG SCT010 BKN100 20/18 A3004 NOSIG

ADS: 131.000
Aerodespacho Ops: 135.000
Central American Center (CENAMER Control): 124.100
Coco Center (Control over CR Airspace): 119.600
Coco Clearance Delivery: 121.300
Coco Ground: 121.900
Coco Terminal Control: 120.500
Coco Tower: 118.600
Coco UNICOM: 126.800
SYQ Ground: 121.700
SYQ Tower: 118.300

MROC

MROC Gnd/Twr/App/Center
San Jose, Costa Rica

Feed Status: DOWN
Offline since: 2013-07-05 06:48:03 UTC
MROC 020600Z 02004KT 9999 BCFG SCT010 BKN100 20/18 A3004 NOSIG

Centamer Control: 124.100
Coco Center: 119.600
Coco Ground: 121.900
Coco Terminal Control: 120.500
Coco Tower: 118.600

Sponsored by: AviacionCR.net

MSSS Tower (Archives)
San Salvador, El Salvador

Feed Status: UP

Click on your favorite media player to listen:
Listen with WinAmp to MSSS Tower  Listen with iTunes to MSSS Tower  Click here to listen if using Real Player  Click here to listen if using Windows Media Player

Or simply listen in your browser:

Listen right in your browser(in browser, requires Flash)

MSSS 020550Z 36002KT CAVOK 22/22 Q1016 A3003

MSSS Flight Activity (Flightaware)

Listeners: 2 out of 3182 total

El Salvador Approach: 119.900
Ilopango Approach: 119.500
Ilopango Ground: 121.900
Ilopango Tower: 118.300

Please make a donation to help us keep growing!